This is the latest recevied weather packets stored in our database for station/object N7YET. If no packets are shown the sender has not sent any weather packets the latest 10 day(s).
| Time | Temp. | Humidity | Pressure | Rain* | Wind** | Luminosity | Snow |
|---|---|---|---|---|---|---|---|
| 1777753829 | 22.22° C | 10% | 1231.9 hPa | 0 mm | - | - | - |
| 1777753229 | 21.67° C | 11% | 1231.9 hPa | 0 mm | - | - | - |
| 1777752628 | 21.67° C | 10% | 1231.9 hPa | 0 mm | - | - | - |
| 1777752027 | 21.11° C | 12% | 1231.9 hPa | 0 mm | - | - | - |
| 1777751427 | 20.56° C | 12% | 1231.9 hPa | 0 mm | - | - | - |
| 1777750826 | 20.56° C | 11% | 1231.9 hPa | 0 mm | - | - | - |
| 1777750226 | 20.56° C | 11% | 1231.9 hPa | 0 mm | - | - | - |
| 1777749625 | 20.56° C | 12% | 1231.9 hPa | 0 mm | - | - | - |
| 1777749024 | 20° C | 11% | 1231.9 hPa | 0 mm | - | - | - |
| 1777748424 | 20° C | 16% | 1231.9 hPa | 0 mm | - | - | - |
| 1777747823 | 19.44° C | 16% | 1231.9 hPa | 0 mm | - | - | - |
| 1777747222 | 18.89° C | 18% | 1231.9 hPa | 0 mm | - | - | - |
| 1777746622 | 18.33° C | 20% | 1231.9 hPa | 0 mm | - | - | - |
| 1777746021 | 18.89° C | 20% | 1231.9 hPa | 0 mm | - | - | - |
| 1777745421 | 18.33° C | 19% | 1231.9 hPa | 0 mm | - | - | - |
| 1777744820 | 17.78° C | 22% | 1231.9 hPa | 0 mm | - | - | - |
| 1777744219 | 17.22° C | 24% | 1231.9 hPa | 0 mm | - | - | - |
| 1777743618 | 16.67° C | 24% | 1231.9 hPa | 0 mm | - | - | - |
| 1777743017 | 16.67° C | 25% | 1231.9 hPa | 0 mm | - | - | - |
| 1777742417 | 16.11° C | 26% | 1231.9 hPa | 0 mm | - | - | - |
| 1777741816 | 15.56° C | 26% | 1231.9 hPa | 0 mm | - | - | - |
| 1777741216 | 15° C | 27% | 1231.9 hPa | 0 mm | - | - | - |
| 1777740615 | 15° C | 27% | 1231.9 hPa | 0 mm | - | - | - |
| 1777740015 | 14.44° C | 27% | 1231.9 hPa | 0 mm | - | - | - |
| 1777739414 | 14.44° C | 28% | 1231.9 hPa | 0 mm | - | - | - |
* Rain latest hour (hover to see other rain measurements)
** Current wind speed in m/s (hover to see current wind gust speed)